Location: *
(2.5500°S, 65.9667°W)
Time: 22:59:35
(UTC+00:00)

SRMSAT - Pass Details

Date: 04 July 2022
Orbit: 848 x 865 km, 20.0° (Epoch: 16 August)

Event Time Altitude Azimuth Distance (km) Brightness Sun altitude
Exits shadow 08:02:02 37° 103° (ESE) 1,282 ? -34.5°
Drops below altitude 10° 08:05:32 10° 108° (ESE) 2,463 ? -33.7°
Sets 08:08:06 0° 109° (ESE) 3,401 ? -33.1°
